Location: York
(31.8935°S, 116.7682°E)
Time: 18:55:14
(UTC+08:00)

deb Explorer IX - Pass Details

Date: 02 October 2022
Orbit: 533 x 1057 km, 38.8° (Epoch: 30 November)

Event Time Altitude Azimuth Distance (km) Brightness Sun altitude
Rises 17:46:19 0° 306° (NW) 3,698 ? 5.3°
Reaches altitude 10° 17:49:08 10° 308° (NW) 2,689 ? 4.7°
Maximum altitude 17:55:32 65° 29° (NNE) 951 ? 3.4°
Drops below altitude 10° 18:01:04 10° 110° (ESE) 2,340 ? 2.2°
Sets 18:03:23 0° 112° (ESE) 3,187 ? 1.7°
